2024-149BS

Last updated on Mon Sep 16 2024 00:02:03 GMT+0000 (Coordinated Universal Time)

1 60532U 24149BS 24259.14803935 .00008565 00000+0 85576-3 0 9998 2 60532 97.7478 334.1247 0001478 78.3045 281.8339 14.91720637 4368
UTC large
Height (km)
Speed (km/s)
/
Latitude / Longitude
Inclination (degrees)
Orbital Period (minutes)
Azimuth
Elevation
Range (km)
Doppler Factor

Next 0 passes for location: London (51.5072 / 0.1276)

Sorry there are no passes over London.